Weather in Kapustin Yar

Russia / Astrakhan Oblast     48°34′28″N   45°45′58″E
temp.,
°C
wind,
m/s
gust,
m/s
humid.,
%
clouds,
%
prec.,
mm/h
press.,
hPa
HPBL,
m
29 june, wed
wed2901:00+21ne8137296 1.2 1013476
04:00+18ne611579 1.6 1014372
07:00+18ne711482 0.0 1015591
10:00+22ne88290 0.0 10161249
13:00+25ne66240 0.0 10161965
16:00+26nne66220 0.0 10152245
19:00+24nne65240 0.0 10152210
22:00+19nne45370 0.0 101667
30 june, thu
thu3001:00+17nne33440 0.0 101636
04:00+15e33520 0.0 101636
07:00+17e34510 0.0 1017217
10:00+22ne32405 0.0 10161346
13:00+25n333086 0.0 10152455
16:00+26nnw332513 0.0 10132701
19:00+26nw442657 0.0 10122331
22:00+20n453781 0.0 101372
1 july, fri
fri101:00+21nne2341100 0.0 101268
04:00+18nnw1149100 0.0 101211
07:00+21w224140 0.0 1011168
10:00+24wnw463432 0.0 10101794
13:00+24nw6732100 0.0 10091998
16:00+23n984245 0.0 10091226
19:00+20n894623 0.0 10101455
22:00+15n610526 0.0 1012378
2 july, sat
sat201:00+11nnw510645 0.0 1013429
04:00+10nw386925 0.0 1012233
07:00+12nw687130 0.0 1012894
10:00+16nnw564430 0.1 10121475
13:00+21nw683192 0.0 10112351
16:00+18nnw8106053 0.6 10111233
19:00+18nnw111463100 0.4 10101566
22:00+17nnw91565100 0.7 10111064
3 july, sun
sun301:00+16nnw814735 0.0 1011736
04:00+15nw6137713 0.0 1011407
07:00+17nnw712640 0.0 1012597
10:00+23nnw79430 0.0 10131535
13:00+27nnw78280 0.0 10132405
16:00+28nnw78252 0.0 10122748
19:00+25nnw783642 0.0 10131001
22:00+20nnw47500 0.0 1014109